Regional Weather Roundup
Issued by NWS

Home | Current Version | Previous Version | Graphics & Text | Print | Product List | Glossary On
Versions: 1 2 3 4 5 6 7 8 9 10 11 12 13 14 15 16 17 18 19 20 21 22 23 24 25 26 27 28 29 30 31 32 33 34 35 36 37 38 39 40 41 42 43 44 45 46 47 48 49 50
000
ASUS43 KOAX 040402
RWRNE

WEATHER ROUNDUP FOR NEBRASKA
NATIONAL WEATHER SERVICE OMAHA NE
1100 PM CDT MON AUG 03 2015

NOTES: SATELLITE DATA IS BEING USED TO AUGMENT CLOUD COVER ABOVE
       12000 FEET.
       "FAIR" INDICATES FEW OR NO CLOUDS BELOW 12,000 FEET WITH NO
       SIGNIFICANT WEATHER AND/OR OBSTRUCTIONS TO VISIBILITY.

  * THESE STATIONS DO NOT REPORT WEATHER SUCH AS RAIN...SNOW OR FOG.

NEZ001>004-019>022-054>056-040500-
NEBRASKA PANHANDLE

CITY           SKY/WX    TMP DP  RH WIND       PRES   REMARKS
SCOTTSBLUFF    MOCLDY    72  56  57 SE6       29.99R
ALLIANCE       CLOUDY    74  64  71 S10       29.98R
CHADRON        CLOUDY    74  62  66 N5        29.91S
KIMBALL        CLOUDY    71  47  42 S13       30.05S
SIDNEY         MOCLDY    73  49  42 SW16      30.04R
$$

NEZ057>060-069>072-079>082-040500-
SOUTHWEST NEBRASKA

CITY           SKY/WX    TMP DP  RH WIND       PRES   REMARKS
NORTH PLATTE   CLOUDY    73  69  87 E14       29.97R
IMPERIAL       MOCLDY    74  55  51 W5        29.98R
LEXINGTON      CLOUDY    73  68  84 E9        29.97S
MCCOOK         CLOUDY    76  71  85 NE6       29.95R
$$

NEZ005>010-023>029-035>040-094-040500-
NORTH CENTRAL NEBRASKA

CITY           SKY/WX    TMP DP  RH WIND       PRES   REMARKS
BROKEN BOW     PTCLDY    72  63  73 E8        29.99R
ORD            MOCLDY    70  64  81 E6        29.97S
$$

NEZ041-046>049-061>064-073>077-083>087-040500-
SOUTH CENTRAL NEBRASKA

CITY           SKY/WX    TMP DP  RH WIND       PRES   REMARKS
GRAND ISLAND   PTCLDY    71  64  78 E9        29.98R
AURORA         PTCLDY    69  66  91 E6        29.98R
HASTINGS       PTCLDY    72  67  84 MISG      29.97R
KEARNEY *      MOCLDY    70  64  83 E8        29.97S
YORK           PTCLDY    68  64  88 E7        29.98R
$$

NEZ011>018-030>034-042>045-040500-
NORTHEAST NEBRASKA

CITY           SKY/WX    TMP DP  RH WIND       PRES   REMARKS
NORFOLK        MOCLDY    68  63  84 CALM      30.00R
BLAIR          CLOUDY    70  64  81 E3        29.98S
COLUMBUS *     MOCLDY    64  59  82 CALM      29.99R
TEKAMAH        CLOUDY    73  68  84 E3        29.97R
$$

NEZ050>053-065>068-078-088>093-040500-
SOUTHEAST NEBRASKA

CITY           SKY/WX    TMP DP  RH WIND       PRES   REMARKS
LINCOLN        MOCLDY    73  63  70 E5        29.98R
OMAHA EPPLEY   CLOUDY    74  65  73 E6        29.97R
FALLS CITY     PTCLDY    72  70  93 E3        29.94S
$$

NEZ044-045-051>053-067-040500-
OMAHA AREA

CITY           SKY/WX    TMP DP  RH WIND       PRES   REMARKS
OMAHA EPPLEY   CLOUDY    74  65  73 E6        29.97R
BLAIR          CLOUDY    70  64  81 E3        29.98S
OFFUTT AFB     CLEAR     67  66  94 NE5       29.96R
$$


USA.gov is the U.S. government's official web portal to all federal, state and local government web resources and services.